Weather History for Redmond, OR

Change the Weather History Date:

Thursday, February 2, 2012

  Actual Average Record
Temperature  
Mean Temperature 33 °F 34 °F  
Max Temperature 49 °F 45 °F 65 °F (1976)
Min Temperature 17 °F 24 °F -14 °F (1979)
Degree Days  
Heating Degree Days 32 31  
Month to date heating degree days 63 62  
Since 1 July heating degree days 3685 3902  
Cooling Degree Days 0 0  
Month to date cooling degree days 0 0  
Year to date cooling degree days 0 0  
Moisture  
Dew Point 20 °F    
Average Humidity 58    
Maximum Humidity 91    
Minimum Humidity 24    
Precipitation  
Precipitation 0.00 in 0.03 in 0.25 in (2004)
Month to date precipitation 0.00 0.05  
Year to date precipitation 1.51 1.02  
Sea Level Pressure  
Sea Level Pressure 30.37 in    
Wind  
Wind Speed 3 mph (WSW)    
Max Wind Speed 12 mph    
Max Gust Speed 13 mph    
Visibility 10 miles    
Events      
T = Trace of Precipitation, MM = Missing Value Source: NWS Daily Summary

Daily Weather History Graph

Daily Weather History Graph

Search for Another Location

Airport:

Trip Planner

Search our weather history database for the weather conditions in past years. The results will help you decide how hot, cold, wet, or windy it might be!

Date:

Astronomy

Feb. 02, 2012 Rise Set
Actual Time 7:21 AM PST 5:15 PM PST
Civil Twilight 6:51 AM PST 5:46 PM PST
Nautical Twilight 6:16 AM PST 6:20 PM PST
Astronomical Twilight 5:42 AM PST 6:54 PM PST
Moon 12:26 PM PST (2/2) 3:13 AM PST (2/2)
Length of Visible Light 10h 54m
Length of Day
9h 53m
Waxing Gibbous, 74% of the Moon is Illuminated
Feb 2
Waxing Gibbous
Feb 7
Full
Feb 14
Last Quarter
Feb 21
New
Feb 29
First Quarter

Hourly Weather History & Observations

Time (PST) Temp. Windchill Dew Point Humidity Pressure Visibility Wind Dir Wind Speed Gust Speed Precip Events Conditions
12:56 AM 25.0 °F 17.1 °F 21.0 °F 85% 30.43 in 10.0 mi South 6.9 mph - N/A   Clear
1:56 AM 24.1 °F 16.0 °F 21.0 °F 88% 30.44 in 10.0 mi South 6.9 mph - N/A   Clear
2:56 AM 23.0 °F 18.4 °F 19.9 °F 88% 30.44 in 10.0 mi SSE 3.5 mph - N/A   Clear
3:56 AM 24.1 °F - 21.0 °F 88% 30.44 in 10.0 mi Calm Calm - N/A   Overcast
4:56 AM 23.0 °F 17.0 °F 19.9 °F 88% 30.44 in 10.0 mi SE 4.6 mph - N/A   Partly Cloudy
5:56 AM 24.1 °F - 19.9 °F 84% 30.45 in 10.0 mi Calm Calm - N/A   Scattered Clouds
6:56 AM 19.0 °F - 17.1 °F 92% 30.46 in 10.0 mi Calm Calm - N/A   Clear
7:56 AM 21.0 °F - 18.0 °F 88% 30.46 in 10.0 mi Calm Calm - N/A   Clear
8:56 AM 30.0 °F 25.2 °F 23.0 °F 75% 30.44 in 10.0 mi East 4.6 mph - N/A   Clear
9:56 AM 35.1 °F - 24.1 °F 64% 30.44 in 10.0 mi Calm Calm - N/A   Clear
10:56 AM 39.0 °F 36.8 °F 24.1 °F 55% 30.43 in 10.0 mi Variable 3.5 mph - N/A   Clear
11:56 AM 42.1 °F - 19.9 °F 41% 30.40 in 10.0 mi Calm Calm - N/A   Clear
12:56 PM 44.1 °F 42.5 °F 18.0 °F 35% 30.36 in 10.0 mi SSE 3.5 mph - N/A   Clear
1:56 PM 46.9 °F - 15.1 °F 28% 30.34 in 10.0 mi NNW 4.6 mph - N/A   Clear
2:56 PM 48.9 °F - 14.0 °F 25% 30.33 in 10.0 mi NNW 5.8 mph - N/A   Clear
3:56 PM 46.0 °F 41.0 °F 24.1 °F 42% 30.32 in 10.0 mi NNW 10.4 mph - N/A   Clear
4:56 PM 43.0 °F 40.3 °F 21.9 °F 43% 30.32 in 10.0 mi North 4.6 mph - N/A   Clear
5:56 PM 33.1 °F 30.0 °F 21.9 °F 64% 30.33 in 10.0 mi West 3.5 mph - N/A   Clear
6:56 PM 34.0 °F 28.8 °F 21.9 °F 61% 30.34 in 10.0 mi WNW 5.8 mph - N/A   Clear
7:56 PM 32.0 °F 26.4 °F 23.0 °F 69% 30.33 in 10.0 mi West 5.8 mph - N/A   Clear
8:56 PM 28.9 °F 25.2 °F 21.0 °F 72% 30.32 in 10.0 mi West 3.5 mph - N/A   Clear
9:56 PM 24.1 °F 19.7 °F 19.9 °F 84% 30.33 in 10.0 mi SSE 3.5 mph - N/A   Clear
10:56 PM 24.1 °F - 19.0 °F 81% 30.32 in 10.0 mi Calm Calm - N/A   Clear
11:56 PM 21.0 °F - 18.0 °F 88% 30.32 in 10.0 mi Calm Calm - N/A   Clear